Meteo pe oră la Abbottabad

Astăzi, 3 August, Marţi

Timp Temperatura Precipitaţii Vânt Presiune Umiditate
00:00 +24°C° 0.2 mm 2 m/s 650 mmHg 75%
01:00 +24°C° 0.2 mm 2 m/s 650 mmHg 76%
02:00 +23°C° 0.2 mm 2 m/s 650 mmHg 77%
03:00 +23°C° 0.4 mm 2 m/s 650 mmHg 78%
04:00 +23°C° 0.4 mm 2 m/s 650 mmHg 79%
05:00 +21°C° 0 mm 2 m/s 650 mmHg 81%
06:00 +24°C° 0.1 mm 1 m/s 651 mmHg 77%
07:00 +25°C° 0.1 mm 1 m/s 651 mmHg 73%
08:00 +26°C° 0.1 mm 1 m/s 652 mmHg 69%
09:00 +28°C° 0.3 mm 1 m/s 652 mmHg 65%
10:00 +29°C° 0.3 mm 1 m/s 653 mmHg 62%
11:00 +30°C° 0 mm 1 m/s 653 mmHg 58%
12:00 +30°C° 0.3 mm 1 m/s 652 mmHg 57%
13:00 +31°C° 0.3 mm 2 m/s 652 mmHg 57%
14:00 +31°C° 0.3 mm 2 m/s 652 mmHg 56%
15:00 +31°C° 0.1 mm 1 m/s 651 mmHg 56%
16:00 +31°C° 0.1 mm 1 m/s 651 mmHg 57%
17:00 +31°C° 0.1 mm 1 m/s 651 mmHg 57%
18:00 +29°C° 0 mm 1 m/s 651 mmHg 62%
19:00 +28°C° 0 mm 1 m/s 650 mmHg 66%
20:00 +26°C° 0 mm 1 m/s 650 mmHg 71%
21:00 +26°C° 0.1 mm 1 m/s 650 mmHg 71%
22:00 +25°C° 0.1 mm 2 m/s 650 mmHg 72%
23:00 +25°C° 0.1 mm 2 m/s 651 mmHg 72%

Mâine, 4 August, Miercuri

Timp Temperatura Precipitaţii Vânt Presiune Umiditate
00:00 +24°C° 0.6 mm 2 m/s 650 mmHg 75%
01:00 +24°C° 0.6 mm 2 m/s 650 mmHg 78%
02:00 +23°C° 0.6 mm 2 m/s 650 mmHg 81%
03:00 +23°C° 0.9 mm 2 m/s 650 mmHg 81%
04:00 +23°C° 0.9 mm 2 m/s 650 mmHg 81%
05:00 +23°C° 0.9 mm 2 m/s 650 mmHg 81%
06:00 +24°C° 1.2 mm 1 m/s 650 mmHg 79%
07:00 +25°C° 1.2 mm 1 m/s 651 mmHg 77%
08:00 +26°C° 1.2 mm 1 m/s 651 mmHg 74%
09:00 +27°C° 0.8 mm 1 m/s 651 mmHg 70%
10:00 +29°C° 0.8 mm 1 m/s 652 mmHg 65%
11:00 +30°C° 0.8 mm 1 m/s 652 mmHg 60%
12:00 +30°C° 0.4 mm 1 m/s 652 mmHg 59%
13:00 +31°C° 0.4 mm 1 m/s 652 mmHg 58%
14:00 +31°C° 0.4 mm 2 m/s 652 mmHg 56%
15:00 +31°C° 0.3 mm 2 m/s 651 mmHg 57%
16:00 +31°C° 0.3 mm 1 m/s 651 mmHg 59%
17:00 +31°C° 0.3 mm 1 m/s 651 mmHg 60%
18:00 +29°C° 0.2 mm 1 m/s 651 mmHg 65%
19:00 +27°C° 0.2 mm 1 m/s 650 mmHg 70%
20:00 +26°C° 0.2 mm 1 m/s 650 mmHg 76%
21:00 +25°C° 0.3 mm 1 m/s 650 mmHg 77%
22:00 +25°C° 0.3 mm 1 m/s 651 mmHg 79%
23:00 +24°C° 0.3 mm 2 m/s 651 mmHg 81%

Poimâine, 5 August, Joi

Timp Temperatura Precipitaţii Vânt Presiune Umiditate
00:00 +23°C° 1.6 mm 2 m/s 650 mmHg 81%
01:00 +23°C° 1.6 mm 2 m/s 650 mmHg 82%
02:00 +23°C° 1.6 mm 1 m/s 650 mmHg 82%
03:00 +23°C° 1 mm 1 m/s 650 mmHg 82%
04:00 +23°C° 1 mm 1 m/s 650 mmHg 82%
05:00 +23°C° 1 mm 1 m/s 650 mmHg 82%
06:00 +24°C° 0.7 mm 1 m/s 650 mmHg 78%
07:00 +25°C° 0.7 mm 1 m/s 651 mmHg 75%
08:00 +26°C° 0.7 mm 1 m/s 651 mmHg 71%
09:00 +27°C° 0.2 mm 1 m/s 652 mmHg 68%
10:00 +28°C° 0.2 mm 1 m/s 652 mmHg 64%
11:00 +29°C° 0.2 mm 1 m/s 652 mmHg 61%
12:00 +30°C° 0.5 mm 2 m/s 652 mmHg 61%
13:00 +30°C° 0.5 mm 2 m/s 652 mmHg 61%
14:00 +30°C° 0.5 mm 2 m/s 652 mmHg 62%
15:00 +30°C° 0.4 mm 2 m/s 651 mmHg 63%
16:00 +29°C° 0.4 mm 1 m/s 651 mmHg 64%
17:00 +29°C° 0.4 mm 1 m/s 651 mmHg 65%
18:00 +28°C° 0.3 mm 1 m/s 651 mmHg 69%
19:00 +26°C° 0.3 mm 1 m/s 651 mmHg 74%
20:00 +25°C° 0.3 mm 1 m/s 651 mmHg 78%
21:00 +24°C° 0.2 mm 2 m/s 651 mmHg 80%
22:00 +24°C° 0.2 mm 2 m/s 651 mmHg 81%
23:00 +23°C° 0.2 mm 2 m/s 650 mmHg 83%

6 August, Vineri

Timp Temperatura Precipitaţii Vânt Presiune Umiditate
00:00 +23°C° 0.7 mm 2 m/s 650 mmHg 83%
01:00 +23°C° 0.7 mm 2 m/s 650 mmHg 83%
02:00 +21°C° 0.7 mm 2 m/s 650 mmHg 83%
03:00 +21°C° 0.8 mm 2 m/s 650 mmHg 83%
04:00 +21°C° 0.8 mm 2 m/s 650 mmHg 84%
05:00 +21°C° 0.8 mm 2 m/s 650 mmHg 84%
06:00 +23°C° 0.2 mm 1 m/s 650 mmHg 79%
07:00 +25°C° 0.2 mm 1 m/s 651 mmHg 74%
08:00 +26°C° 0.2 mm 1 m/s 651 mmHg 70%
09:00 +27°C° 0.2 mm 1 m/s 652 mmHg 66%
10:00 +28°C° 0.2 mm 1 m/s 652 mmHg 63%
11:00 +29°C° 0.2 mm 2 m/s 652 mmHg 60%
12:00 +30°C° 0.1 mm 2 m/s 652 mmHg 60%
13:00 +30°C° 0.1 mm 2 m/s 652 mmHg 59%
14:00 +30°C° 0.1 mm 2 m/s 652 mmHg 59%
15:00 +30°C° 0 mm 2 m/s 651 mmHg 60%
16:00 +30°C° 0 mm 1 m/s 651 mmHg 61%
17:00 +30°C° 0 mm 1 m/s 651 mmHg 62%
18:00 +28°C° 0 mm 1 m/s 651 mmHg 66%
19:00 +27°C° 0 mm 1 m/s 650 mmHg 70%
20:00 +26°C° 0 mm 1 m/s 650 mmHg 75%
21:00 +25°C° 0.1 mm 1 m/s 650 mmHg 76%
22:00 +25°C° 0.1 mm 2 m/s 650 mmHg 77%
23:00 +24°C° 0.1 mm 2 m/s 650 mmHg 78%

7 August, Sâmbătă

Timp Temperatura Precipitaţii Vânt Presiune Umiditate
00:00 +24°C° 0.5 mm 2 m/s 650 mmHg 79%
01:00 +23°C° 0.5 mm 2 m/s 650 mmHg 80%
02:00 +23°C° 0.5 mm 1 m/s 650 mmHg 82%
03:00 +23°C° 1.2 mm 1 m/s 650 mmHg 84%
04:00 +22°C° 1.2 mm 1 m/s 650 mmHg 86%
05:00 +22°C° 1.2 mm 1 m/s 651 mmHg 88%
06:00 +23°C° 0.1 mm 1 m/s 651 mmHg 83%
07:00 +24°C° 0.1 mm 1 m/s 652 mmHg 78%
08:00 +26°C° 0.1 mm 1 m/s 652 mmHg 73%
09:00 +27°C° 0 mm 1 m/s 653 mmHg 67%
10:00 +29°C° 0 mm 1 m/s 653 mmHg 61%
11:00 +30°C° 0 mm 2 m/s 653 mmHg 55%
12:00 +30°C° 0 mm 2 m/s 653 mmHg 55%
13:00 +31°C° 0 mm 2 m/s 653 mmHg 54%
14:00 +31°C° 0 mm 2 m/s 653 mmHg 54%
15:00 +31°C° 0.1 mm 2 m/s 653 mmHg 56%
16:00 +31°C° 0.1 mm 2 m/s 652 mmHg 58%
17:00 +30°C° 0.1 mm 1 m/s 652 mmHg 60%
18:00 +29°C° 0.2 mm 1 m/s 652 mmHg 66%
19:00 +27°C° 0.2 mm 1 m/s 652 mmHg 71%
20:00 +25°C° 0.2 mm 1 m/s 652 mmHg 76%
21:00 +25°C° 0 mm 2 m/s 652 mmHg 77%
22:00 +25°C° 0 mm 2 m/s 652 mmHg 78%
23:00 +24°C° 0 mm 2 m/s 652 mmHg 78%

8 August, Duminică

Timp Temperatura Precipitaţii Vânt Presiune Umiditate
00:00 +24°C° 0.3 mm 2 m/s 652 mmHg 79%
01:00 +24°C° 0.3 mm 2 m/s 652 mmHg 79%
02:00 +23°C° 0.3 mm 2 m/s 651 mmHg 80%
03:00 +23°C° 0.9 mm 2 m/s 651 mmHg 80%
04:00 +23°C° 0.9 mm 2 m/s 651 mmHg 81%
05:00 +21°C° 0.9 mm 2 m/s 651 mmHg 82%
06:00 +24°C° 0.4 mm 1 m/s 652 mmHg 78%
07:00 +25°C° 0.4 mm 1 m/s 652 mmHg 73%
08:00 +27°C° 0.4 mm 1 m/s 653 mmHg 69%
09:00 +28°C° 0.4 mm 1 m/s 653 mmHg 65%
10:00 +29°C° 0.4 mm 1 m/s 654 mmHg 61%
11:00 +30°C° 0.4 mm 1 m/s 654 mmHg 57%
12:00 +31°C° 0.2 mm 2 m/s 654 mmHg 57%
13:00 +31°C° 0.2 mm 2 m/s 654 mmHg 58%
14:00 +31°C° 0.2 mm 2 m/s 653 mmHg 58%
15:00 +31°C° 0.1 mm 1 m/s 653 mmHg 59%
16:00 +31°C° 0.1 mm 1 m/s 653 mmHg 60%
17:00 +31°C° 0.1 mm 1 m/s 653 mmHg 60%
18:00 +29°C° 0 mm 1 m/s 653 mmHg 65%
19:00 +28°C° 0 mm 1 m/s 652 mmHg 69%
20:00 +26°C° 0 mm 1 m/s 652 mmHg 74%
21:00 +26°C° 0.1 mm 1 m/s 652 mmHg 75%
22:00 +25°C° 0.1 mm 2 m/s 652 mmHg 76%
23:00 +25°C° 0.1 mm 2 m/s 652 mmHg 77%
Arată mai mult

Formular de consimțământ

Meteoprog și furnizorii noștri de servicii pot stoca și accesa date personale, precum cookies, identificatori de dispozitiv sau alte tehnologii similare pe dispozitivul dumneavoastră și procesa astfel de date pentru a personaliza conținutul și reclamele, dar și pentru a oferi caracteristici de social media și pentru a analiza traficul.

  • Stocarea și/sau accesarea informațiilor pe dispozitivul dumneavoastră

    Cookies, identificatori de dispozitiv sau alte informații pot fi stocate sau accesate pe dispozitiv în scopurile indicate mai sus.

  • Reclame și conținut personalizat, evaluarea reclamelor și a conținutului, informații despre audiențe și dezvoltarea produselor

    Reclamele și conținutul pot fi personalizate pe baza unui profil. Pot fi adăugate date suplimentare pentru a personaliza mai bine reclamele și conținutul. Performanța reclamelor și conținutului poate fi măsurată. Pot fi obținute informații despre utilizatorii care au văzut reclamele și conținutul. Aceste date pot fi utilizate pentru a dezvolta sau îmbunătăți experiența utilizatorilor, sistemele și software-ul.

Dând clic pe ‘Sunt de acord’, permiteți utilizarea cookie-urilor menționate, a identificatorilor de dispozitiv, balizelor web sau altor tehnologii similare. Setările pot fi modificate din browser-ul dispozitivului dumneavoastră.

În anumite scopuri, interesele legitime pot prima asupra consimțământului. Puteți citi mai multe informații în acest sens în Politica privind Confidențialitatea Datelor și Cookie.